Regional Weather Roundup
Issued by NWS Charleston, WV

Home | Current Version | Previous Version | Text Only | Print | Product List | Glossary Off
Versions: 1 2 3 4 5 6 7 8 9 10 11 12 13 14 15 16 17 18 19 20 21 22 23 24 25 26 27 28 29 30 31 32 33 34 35 36 37 38 39 40 41 42 43 44 45 46 47 48 49 50

000
ASUS41 KRLX 240810
RWRRLX
West Virginia Regional Weather Roundup
National Weather Service Charleston WV
400 AM EDT WED MAY 24 2017

Note: "fair" indicates few or no clouds below 12,000 feet with no
significant weather and/or obstructions to visibility.

WVZ003-240900-
Northern Panhandle of West Virginia

CITY           SKY/WX    TMP DP  RH WIND       PRES   REMARKS
WHEELING       CLOUDY    57  54  89 NE8       29.65F
$$

WVZ009-240900-
Northwest West Virginia

CITY           SKY/WX    TMP DP  RH WIND       PRES   REMARKS
PARKERSBURG    LGT RAIN  60  58  92 CALM      29.64F FOG
$$

WVZ006-240900-
Western West Virginia

CITY           SKY/WX    TMP DP  RH WIND       PRES   REMARKS
HUNTINGTON     CLOUDY    61  58  90 CALM      29.59S
$$

WVZ015-240900-
West Central West Virginia

CITY           SKY/WX    TMP DP  RH WIND       PRES   REMARKS
CHARLESTON     CLOUDY    59  57  93 NE3       29.59F
$$

WVZ022-031-240900-
North Central West Virginia

CITY           SKY/WX    TMP DP  RH WIND       PRES   REMARKS
CLARKSBURG     CLOUDY    56  54  93 N6        29.64F
MORGANTOWN     CLOUDY    57  54  89 CALM      29.66F
$$

WVZ025-035-042-045-240900-
Southern West Virginia

CITY           SKY/WX    TMP DP  RH WIND       PRES   REMARKS
BECKLEY        CLOUDY    55  52  89 SE12      29.66F
LOGAN          CLOUDY    59  57  94 CALM      29.60F
BLUEFIELD      CLOUDY    53  52  96 VRB7      29.68F
LEWISBURG      RAIN      54  53  96 CALM      29.68S
$$

WVZ047-240900-
Northern Mountains of West Virginia

CITY           SKY/WX    TMP DP  RH WIND       PRES   REMARKS
ELKINS         CLOUDY    57  51  80 S3        29.66F
$$

WVZ052-240900-
Eastern Panhandle of West Virginia

CITY           SKY/WX    TMP DP  RH WIND       PRES   REMARKS
MARTINSBURG    CLOUDY    56  55  97 CALM      29.70F FOG
PETERSBURG     CLOUDY    58  57  97 CALM      29.70F FOG
$$



USA.gov is the U.S. government's official web portal to all federal, state and local government web resources and services.